TimePDT,TemperatureF,Dew PointF,Humidity,Sea Level PressureIn,VisibilityMPH,Wind Direction,Wind SpeedMPH,Gust SpeedMPH,PrecipitationIn,Events,Conditions,WindDirDegrees,DateUTC
12:15 AM,48.2,32.0,54,29.97,10.0,NW,11.5,-,N/A,,Clear,310,2013-06-24 07:15:00
12:35 AM,50.0,32.0,50,29.97,10.0,WNW,16.1,20.7,N/A,,Clear,300,2013-06-24 07:35:00
12:55 AM,50.0,32.0,50,29.97,10.0,WNW,13.8,18.4,N/A,,Clear,300,2013-06-24 07:55:00
1:15 AM,50.0,32.0,50,29.96,10.0,NW,10.4,17.3,N/A,,Clear,320,2013-06-24 08:15:00
1:35 AM,50.0,32.0,50,29.95,10.0,NNW,10.4,17.3,N/A,,Clear,330,2013-06-24 08:35:00
1:55 AM,48.2,33.8,58,29.95,10.0,NW,9.2,-,N/A,,Clear,310,2013-06-24 08:55:00
2:15 AM,50.0,32.0,50,29.94,10.0,NW,9.2,-,N/A,,Clear,310,2013-06-24 09:15:00
2:35 AM,50.0,32.0,50,29.94,10.0,Calm,Calm,-,N/A,,Clear,0,2013-06-24 09:35:00
2:55 AM,50.0,32.0,50,29.94,10.0,Calm,Calm,-,N/A,,Clear,0,2013-06-24 09:55:00
3:15 AM,51.8,32.0,47,29.93,10.0,SW,3.5,-,N/A,,Clear,220,2013-06-24 10:15:00
3:35 AM,53.6,30.2,41,29.92,10.0,South,18.4,26.5,N/A,,Clear,190,2013-06-24 10:35:00
3:55 AM,53.6,30.2,41,29.93,10.0,Calm,Calm,-,N/A,,Scattered Clouds,0,2013-06-24 10:55:00
4:15 AM,51.8,32.0,47,29.93,10.0,NW,8.1,-,N/A,,Scattered Clouds,320,2013-06-24 11:15:00
4:35 AM,55.4,32.0,41,29.93,10.0,North,5.8,23.0,N/A,,Clear,360,2013-06-24 11:35:00
4:55 AM,50.0,32.0,50,29.93,10.0,East,5.8,-,N/A,,Clear,100,2013-06-24 11:55:00
5:15 AM,51.8,33.8,50,29.94,10.0,NNW,9.2,-,N/A,,Scattered Clouds,340,2013-06-24 12:15:00
5:35 AM,51.8,33.8,50,29.94,10.0,North,3.5,-,N/A,,Mostly Cloudy,10,2013-06-24 12:35:00
5:55 AM,51.8,32.0,47,29.95,10.0,NNW,11.5,16.1,N/A,,Overcast,330,2013-06-24 12:55:00
6:15 AM,53.6,32.0,44,29.94,10.0,SW,4.6,-,N/A,,Scattered Clouds,230,2013-06-24 13:15:00
6:35 AM,50.0,33.8,54,29.95,10.0,WSW,5.8,-,N/A,,Clear,240,2013-06-24 13:35:00
6:55 AM,50.0,33.8,54,29.95,10.0,NNW,8.1,-,N/A,,Clear,330,2013-06-24 13:55:00
7:15 AM,50.0,33.8,54,29.95,10.0,NNW,8.1,-,N/A,,Clear,330,2013-06-24 14:15:00
7:35 AM,53.6,33.8,47,29.95,10.0,NW,8.1,17.3,N/A,,Scattered Clouds,320,2013-06-24 14:35:00
7:55 AM,53.6,32.0,44,29.95,10.0,West,9.2,-,N/A,,Mostly Cloudy,280,2013-06-24 14:55:00
8:15 AM,55.4,33.8,44,29.97,10.0,WNW,9.2,23.0,N/A,,Scattered Clouds,290,2013-06-24 15:15:00
8:35 AM,57.2,33.8,41,29.96,10.0,SSW,15.0,28.8,N/A,,Mostly Cloudy,210,2013-06-24 15:35:00
8:55 AM,57.2,35.6,44,29.97,10.0,SSE,10.4,21.9,N/A,,Mostly Cloudy,150,2013-06-24 15:55:00
9:15 AM,59.0,35.6,42,29.95,10.0,SSW,19.6,26.5,N/A,,Scattered Clouds,210,2013-06-24 16:15:00
9:35 AM,59.0,35.6,42,29.97,10.0,SSE,5.8,9.2,N/A,,Clear,160,2013-06-24 16:35:00
9:55 AM,60.8,35.6,39,29.96,10.0,WSW,18.4,32.2,N/A,,Scattered Clouds,240,2013-06-24 16:55:00
10:15 AM,62.6,35.6,37,29.96,10.0,SW,12.7,18.4,N/A,,Mostly Cloudy,220,2013-06-24 17:15:00
10:35 AM,62.6,35.6,37,29.98,10.0,West,19.6,28.8,N/A,,Mostly Cloudy,280,2013-06-24 17:35:00
10:55 AM,59.0,37.4,45,29.98,10.0,WSW,23.0,34.5,N/A,Rain,Light Rain,240,2013-06-24 17:55:00
11:15 AM,59.0,37.4,45,29.99,10.0,SW,21.9,34.5,N/A,,Overcast,220,2013-06-24 18:15:00
11:35 AM,59.0,37.4,45,29.98,10.0,SSW,17.3,31.1,N/A,,Mostly Cloudy,210,2013-06-24 18:35:00
11:55 AM,60.8,35.6,39,29.98,10.0,SW,21.9,29.9,N/A,,Mostly Cloudy,220,2013-06-24 18:55:00
12:15 PM,60.8,35.6,39,29.98,10.0,SSW,20.7,28.8,N/A,,Overcast,210,2013-06-24 19:15:00
12:35 PM,60.8,35.6,39,29.98,10.0,SW,24.2,29.9,N/A,,Mostly Cloudy,230,2013-06-24 19:35:00
12:55 PM,60.8,35.6,39,29.99,10.0,SW,16.1,28.8,N/A,,Scattered Clouds,230,2013-06-24 19:55:00
1:15 PM,60.8,35.6,39,30.00,10.0,WSW,12.7,32.2,N/A,,Mostly Cloudy,240,2013-06-24 20:15:00
1:35 PM,60.8,35.6,39,29.99,10.0,South,15.0,35.7,N/A,,Overcast,190,2013-06-24 20:35:00
1:55 PM,60.8,35.6,39,30.00,10.0,SW,19.6,26.5,N/A,,Overcast,220,2013-06-24 20:55:00
2:15 PM,60.8,35.6,39,29.99,10.0,SW,19.6,36.8,N/A,,Mostly Cloudy,220,2013-06-24 21:15:00
2:35 PM,60.8,37.4,42,30.00,10.0,SW,16.1,33.4,N/A,,Overcast,220,2013-06-24 21:35:00
2:55 PM,60.8,37.4,42,29.99,10.0,SSW,21.9,29.9,N/A,,Overcast,210,2013-06-24 21:55:00
3:15 PM,60.8,37.4,42,30.00,10.0,SSW,21.9,34.5,N/A,,Overcast,210,2013-06-24 22:15:00
3:35 PM,60.8,39.2,45,30.01,10.0,SW,18.4,28.8,N/A,,Overcast,220,2013-06-24 22:35:00
3:55 PM,60.8,39.2,45,30.02,10.0,SW,12.7,21.9,N/A,,Overcast,220,2013-06-24 22:55:00
4:15 PM,60.8,39.2,45,30.03,10.0,WSW,15.0,21.9,N/A,,Overcast,250,2013-06-24 23:15:00
4:35 PM,60.8,39.2,45,30.02,10.0,SW,13.8,24.2,N/A,,Overcast,230,2013-06-24 23:35:00
4:55 PM,59.0,41.0,51,30.03,10.0,West,10.4,21.9,N/A,,Overcast,280,2013-06-24 23:55:00
5:15 PM,60.8,41.0,48,30.03,10.0,NW,11.5,19.6,N/A,,Overcast,310,2013-06-25 00:15:00
5:35 PM,57.2,41.0,55,30.03,10.0,West,15.0,24.2,N/A,,Mostly Cloudy,260,2013-06-25 00:35:00
5:55 PM,57.2,41.0,55,30.03,10.0,WNW,13.8,19.6,N/A,,Mostly Cloudy,290,2013-06-25 00:55:00
6:15 PM,55.4,42.8,63,30.04,10.0,NW,17.3,25.3,N/A,,Mostly Cloudy,310,2013-06-25 01:15:00
6:35 PM,55.4,42.8,63,30.05,10.0,WNW,13.8,19.6,N/A,,Mostly Cloudy,300,2013-06-25 01:35:00
6:55 PM,53.6,42.8,67,30.06,10.0,WNW,17.3,26.5,N/A,,Scattered Clouds,290,2013-06-25 01:55:00
7:15 PM,53.6,42.8,67,30.06,10.0,WNW,16.1,24.2,N/A,,Scattered Clouds,290,2013-06-25 02:15:00
7:35 PM,55.4,41.0,58,30.06,10.0,West,9.2,16.1,N/A,,Clear,260,2013-06-25 02:35:00
7:55 PM,55.4,41.0,58,30.06,10.0,West,11.5,-,N/A,,Clear,270,2013-06-25 02:55:00
8:15 PM,51.8,41.0,67,30.07,10.0,NW,10.4,-,N/A,,Scattered Clouds,320,2013-06-25 03:15:00
8:35 PM,51.8,41.0,67,30.07,10.0,NNE,11.5,-,N/A,,Mostly Cloudy,30,2013-06-25 03:35:00
8:55 PM,51.8,41.0,67,30.07,10.0,North,5.8,-,N/A,,Mostly Cloudy,10,2013-06-25 03:55:00
9:15 PM,51.8,41.0,67,30.08,10.0,SE,4.6,-,N/A,,Mostly Cloudy,130,2013-06-25 04:15:00
9:35 PM,51.8,42.8,71,30.09,10.0,North,4.6,-,N/A,,Mostly Cloudy,350,2013-06-25 04:35:00
9:55 PM,51.8,41.0,67,30.10,10.0,Calm,Calm,-,N/A,,Overcast,0,2013-06-25 04:55:00
10:15 PM,51.8,41.0,67,30.11,10.0,West,5.8,-,N/A,,Overcast,280,2013-06-25 05:15:00
10:35 PM,51.8,42.8,71,30.10,10.0,NW,4.6,-,N/A,,Overcast,320,2013-06-25 05:35:00
10:55 PM,51.8,42.8,71,30.10,10.0,NW,6.9,-,N/A,,Overcast,320,2013-06-25 05:55:00
11:15 PM,51.8,41.0,67,30.10,10.0,Calm,Calm,-,N/A,,Overcast,0,2013-06-25 06:15:00
11:35 PM,50.0,41.0,71,30.11,10.0,Calm,Calm,-,N/A,,Overcast,0,2013-06-25 06:35:00
11:55 PM,50.0,41.0,71,30.11,10.0,Calm,Calm,-,N/A,,Overcast,0,2013-06-25 06:55:00